SVA1109 OEDF-OEJN

Flight info

Callsign SVA1109
Flight time 1h 55m
Altitude 40000
Route MIBRA N687 KIA G782 RGB M309 VEMEM
Aircraft A333/H-SDE3GHIJ2J3J5M1RVWXY/LB2D1

Departure

Time 2026-04-29 11:19
Airport King Fahd International Airport (OEDF)

Arrival

Time 2026-04-29 13:14
Airport King Abdulaziz International Airport (OEJN)
Time Latitude Longitude Altitude Speed Heading
2026-04-29 10:40 26.46630 49.79560 93 ft 0 kts 85°
2026-04-29 11:05 26.46628 49.79540 91 ft 4 kts 85°
2026-04-29 11:05 26.46626 49.79516 90 ft 4 kts 89°
2026-04-29 11:05 26.46633 49.79490 90 ft 4 kts 140°
2026-04-29 11:05 26.46655 49.79478 91 ft 2 kts 165°
2026-04-29 11:06 26.46679 49.79470 91 ft 3 kts 165°
2026-04-29 11:06 26.46683 49.79469 92 ft 0 kts 165°
2026-04-29 11:11 26.46682 49.79469 143 ft 0 kts 165°
2026-04-29 11:13 26.46651 49.79478 91 ft 7 kts 168°
2026-04-29 11:14 26.46600 49.79485 94 ft 7 kts 174°
2026-04-29 11:14 26.46547 49.79491 90 ft 8 kts 175°
2026-04-29 11:14 26.46467 49.79464 93 ft 20 kts 236°
2026-04-29 11:14 26.46428 49.79304 92 ft 15 kts 254°
2026-04-29 11:15 26.46382 49.79231 93 ft 11 kts 194°
2026-04-29 11:15 26.46310 49.79249 91 ft 11 kts 163°
2026-04-29 11:15 26.46235 49.79272 91 ft 12 kts 165°
2026-04-29 11:15 26.46152 49.79298 93 ft 13 kts 164°
2026-04-29 11:16 26.46062 49.79327 94 ft 14 kts 164°
2026-04-29 11:16 26.45962 49.79358 91 ft 15 kts 165°
2026-04-29 11:16 26.45854 49.79390 94 ft 17 kts 165°
2026-04-29 11:16 26.45736 49.79428 92 ft 20 kts 164°
2026-04-29 11:17 26.45593 49.79472 94 ft 19 kts 165°
2026-04-29 11:17 26.45494 49.79488 92 ft 11 kts 196°
2026-04-29 11:17 26.45450 49.79422 93 ft 11 kts 248°
2026-04-29 11:17 26.45427 49.79334 92 ft 12 kts 255°
2026-04-29 11:18 26.45406 49.79241 92 ft 9 kts 257°
2026-04-29 11:18 26.45435 49.79192 94 ft 7 kts 345°
2026-04-29 11:18 26.45485 49.79177 91 ft 10 kts 345°
2026-04-29 11:18 26.45689 49.79116 91 ft 60 kts 345°
2026-04-29 11:19 26.46306 49.78927 93 ft 122 kts 344°
2026-04-29 11:19 26.47298 49.78620 218 ft 168 kts 345°
2026-04-29 11:19 26.48514 49.78250 725 ft 191 kts 345°
2026-04-29 11:19 26.49855 49.77805 1453 ft 209 kts 343°
2026-04-29 11:20 26.51259 49.77252 2262 ft 217 kts 342°
2026-04-29 11:20 26.52664 49.76590 2946 ft 224 kts 333°
2026-04-29 11:20 26.53927 49.75489 3369 ft 238 kts 309°
2026-04-29 11:20 26.54697 49.73817 3764 ft 252 kts 281°
2026-04-29 11:21 26.54546 49.71832 4209 ft 267 kts 246°
2026-04-29 11:21 26.53572 49.70095 4997 ft 266 kts 232°
2026-04-29 11:21 26.52438 49.68472 5939 ft 266 kts 230°
2026-04-29 11:21 26.51286 49.66847 6761 ft 267 kts 229°
2026-04-29 11:22 26.50149 49.65222 7673 ft 265 kts 230°
2026-04-29 11:22 26.49019 49.63590 8563 ft 266 kts 231°
2026-04-29 11:22 26.47889 49.61948 9499 ft 267 kts 231°
2026-04-29 11:22 26.46752 49.60290 10341 ft 272 kts 231°
2026-04-29 11:23 26.46086 49.59318 10611 ft 282 kts 231°
2026-04-29 11:23 26.44821 49.57470 10962 ft 304 kts 231°
2026-04-29 11:23 26.43501 49.55541 11451 ft 318 kts 231°
2026-04-29 11:23 26.42138 49.53549 12082 ft 326 kts 231°
2026-04-29 11:24 26.40757 49.51527 12902 ft 329 kts 231°
2026-04-29 11:24 26.39365 49.49490 13757 ft 330 kts 231°
2026-04-29 11:24 26.38442 49.48141 14275 ft 331 kts 231°
2026-04-29 11:24 26.37043 49.46095 15020 ft 332 kts 231°
2026-04-29 11:25 26.35171 49.43362 16019 ft 336 kts 232°
2026-04-29 11:25 26.34213 49.41963 16517 ft 337 kts 233°
2026-04-29 11:25 26.32782 49.39874 17262 ft 339 kts 233°
2026-04-29 11:25 26.31348 49.37781 17987 ft 342 kts 234°
2026-04-29 11:26 26.28458 49.33568 19217 ft 347 kts 234°
2026-04-29 11:26 26.26988 49.31426 19847 ft 349 kts 234°
2026-04-29 11:26 26.25510 49.29274 20464 ft 351 kts 233°
2026-04-29 11:27 26.24021 49.27108 21052 ft 353 kts 233°
2026-04-29 11:27 26.22522 49.24927 21660 ft 356 kts 233°
2026-04-29 11:27 26.21012 49.22733 22248 ft 358 kts 233°
2026-04-29 11:27 26.19490 49.20520 22824 ft 360 kts 233°
2026-04-29 11:28 26.17953 49.18289 23395 ft 363 kts 233°
2026-04-29 11:28 26.16413 49.16053 23864 ft 365 kts 233°
2026-04-29 11:28 26.14863 49.13804 24327 ft 367 kts 233°
2026-04-29 11:28 26.13307 49.11548 24760 ft 369 kts 233°
2026-04-29 11:29 26.11741 49.09277 25214 ft 371 kts 234°
2026-04-29 11:29 26.10165 49.06994 25655 ft 373 kts 234°
2026-04-29 11:29 26.08580 49.04698 26061 ft 375 kts 234°
2026-04-29 11:29 26.06984 49.02389 26481 ft 377 kts 234°
2026-04-29 11:30 26.05380 49.00068 26914 ft 379 kts 234°
2026-04-29 11:30 26.03767 48.97736 27313 ft 381 kts 234°
2026-04-29 11:30 26.02142 48.95387 27714 ft 383 kts 234°
2026-04-29 11:30 26.00512 48.93034 28108 ft 385 kts 234°
2026-04-29 11:31 25.98876 48.90671 28496 ft 387 kts 234°
2026-04-29 11:31 25.97245 48.88318 28834 ft 390 kts 234°
2026-04-29 11:31 25.95585 48.85917 29138 ft 393 kts 235°
2026-04-29 11:31 25.94017 48.83421 29476 ft 395 kts 238°
2026-04-29 11:32 25.92507 48.80855 29853 ft 396 kts 239°
2026-04-29 11:32 25.91031 48.78266 30148 ft 398 kts 239°
2026-04-29 11:32 25.89554 48.75644 30393 ft 401 kts 239°
2026-04-29 11:32 25.88076 48.73013 30644 ft 403 kts 239°
2026-04-29 11:33 25.86584 48.70366 30922 ft 405 kts 239°
2026-04-29 11:33 25.85079 48.67707 31183 ft 407 kts 239°
2026-04-29 11:33 25.83563 48.65040 31450 ft 409 kts 239°
2026-04-29 11:33 25.82033 48.62356 31704 ft 412 kts 239°
2026-04-29 11:34 25.80498 48.59667 32007 ft 412 kts 239°
2026-04-29 11:34 25.78967 48.56990 32408 ft 411 kts 239°
2026-04-29 11:34 25.77437 48.54316 32785 ft 410 kts 239°
2026-04-29 11:34 25.75910 48.51649 33151 ft 409 kts 239°
2026-04-29 11:35 25.74382 48.48979 33532 ft 408 kts 239°
2026-04-29 11:35 25.72863 48.46328 33909 ft 408 kts 239°
2026-04-29 11:35 25.71343 48.43676 34231 ft 407 kts 239°
2026-04-29 11:35 25.69826 48.41030 34557 ft 406 kts 239°
2026-04-29 11:36 25.68353 48.38407 34874 ft 405 kts 240°
2026-04-29 11:36 25.66941 48.35665 35179 ft 405 kts 242°
2026-04-29 11:36 25.65605 48.32920 35465 ft 405 kts 243°
2026-04-29 11:36 25.64294 48.30159 35761 ft 405 kts 243°
2026-04-29 11:37 25.63005 48.27429 36037 ft 405 kts 243°
2026-04-29 11:37 25.61692 48.24662 36322 ft 405 kts 243°
2026-04-29 11:37 25.60374 48.21905 36598 ft 405 kts 243°
2026-04-29 11:37 25.59050 48.19152 36863 ft 405 kts 242°
2026-04-29 11:38 25.57719 48.16400 37141 ft 405 kts 242°
2026-04-29 11:38 25.56386 48.13649 37452 ft 405 kts 242°
2026-04-29 11:38 25.55052 48.10904 37721 ft 405 kts 242°
2026-04-29 11:38 25.53718 48.08159 37998 ft 405 kts 242°
2026-04-29 11:39 25.52384 48.05415 38275 ft 404 kts 242°
2026-04-29 11:39 25.51050 48.02673 38550 ft 404 kts 242°
2026-04-29 11:39 25.49717 47.99933 38751 ft 404 kts 242°
2026-04-29 11:39 25.48385 47.97197 38952 ft 405 kts 242°
2026-04-29 11:40 25.47043 47.94441 39160 ft 405 kts 242°
2026-04-29 11:40 25.45707 47.91699 39366 ft 405 kts 242°
2026-04-29 11:40 25.44372 47.88959 39582 ft 404 kts 242°
2026-04-29 11:40 25.43055 47.86258 39785 ft 404 kts 242°
2026-04-29 11:41 25.41718 47.83518 39927 ft 406 kts 242°
2026-04-29 11:41 25.40373 47.80764 39947 ft 407 kts 242°
2026-04-29 11:41 25.37677 47.75249 39952 ft 408 kts 242°
2026-04-29 11:42 25.34978 47.69733 39955 ft 408 kts 242°
2026-04-29 11:42 25.32277 47.64218 39955 ft 408 kts 242°
2026-04-29 11:43 25.29580 47.58717 39955 ft 408 kts 242°
2026-04-29 11:43 25.26876 47.53207 39946 ft 409 kts 242°
2026-04-29 11:44 25.24155 47.47670 39959 ft 411 kts 242°
2026-04-29 11:44 25.21426 47.42124 39958 ft 411 kts 242°
2026-04-29 11:45 25.18695 47.36582 39961 ft 411 kts 242°
2026-04-29 11:45 25.15959 47.31035 39961 ft 411 kts 242°
2026-04-29 11:46 25.13220 47.25490 39962 ft 411 kts 242°
2026-04-29 11:46 25.10482 47.19953 39963 ft 411 kts 242°
2026-04-29 11:47 25.07743 47.14419 39967 ft 411 kts 242°
2026-04-29 11:47 25.05000 47.08885 39968 ft 411 kts 242°
2026-04-29 11:48 25.02250 47.03344 39969 ft 411 kts 242°
2026-04-29 11:48 24.99525 46.97858 39969 ft 411 kts 242°
2026-04-29 11:49 24.96774 46.92328 39968 ft 411 kts 242°
2026-04-29 11:49 24.94024 46.86807 39964 ft 411 kts 242°
2026-04-29 11:50 24.91273 46.81290 39969 ft 411 kts 242°
2026-04-29 11:50 24.88534 46.75769 39967 ft 411 kts 243°
2026-04-29 11:51 24.86004 46.70129 39966 ft 411 kts 244°
2026-04-29 11:51 24.83574 46.64434 39966 ft 411 kts 245°
2026-04-29 11:52 24.81137 46.58745 39964 ft 411 kts 244°
2026-04-29 11:52 24.78681 46.53071 39965 ft 410 kts 244°
2026-04-29 11:53 24.76214 46.47406 39959 ft 410 kts 244°
2026-04-29 11:53 24.73745 46.41746 39959 ft 411 kts 244°
2026-04-29 11:54 24.71273 46.36084 39955 ft 410 kts 244°
2026-04-29 11:54 24.68802 46.30430 39950 ft 410 kts 244°
2026-04-29 11:55 24.66331 46.24783 39947 ft 410 kts 244°
2026-04-29 11:55 24.63861 46.19146 39943 ft 409 kts 244°
2026-04-29 11:56 24.61388 46.13508 39939 ft 410 kts 244°
2026-04-29 11:56 24.58924 46.07897 39925 ft 410 kts 244°
2026-04-29 11:57 24.56442 46.02253 39925 ft 410 kts 244°
2026-04-29 11:57 24.53954 45.96603 39914 ft 410 kts 244°
2026-04-29 11:58 24.51468 45.90962 39905 ft 410 kts 244°
2026-04-29 11:58 24.48986 45.85339 39907 ft 410 kts 244°
2026-04-29 11:59 24.46496 45.79705 39899 ft 410 kts 244°
2026-04-29 11:59 24.44006 45.74081 39879 ft 409 kts 244°
2026-04-29 12:00 24.41510 45.68460 39879 ft 409 kts 244°
2026-04-29 12:00 24.39016 45.62850 39879 ft 409 kts 244°
2026-04-29 12:01 24.36538 45.57280 39872 ft 409 kts 244°
2026-04-29 12:01 24.34025 45.51642 39868 ft 409 kts 244°
2026-04-29 12:02 24.31540 45.46070 39870 ft 409 kts 244°
2026-04-29 12:02 24.29039 45.40469 39868 ft 409 kts 244°
2026-04-29 12:03 24.26538 45.34877 39868 ft 409 kts 243°
2026-04-29 12:03 24.24026 45.29266 39871 ft 410 kts 243°
2026-04-29 12:04 24.21509 45.23650 39873 ft 410 kts 243°
2026-04-29 12:04 24.18990 45.18038 39880 ft 411 kts 243°
2026-04-29 12:05 24.16467 45.12423 39880 ft 411 kts 243°
2026-04-29 12:05 24.13942 45.06814 39863 ft 411 kts 243°
2026-04-29 12:06 24.11407 45.01192 39865 ft 411 kts 243°
2026-04-29 12:06 24.08871 44.95574 39867 ft 411 kts 243°
2026-04-29 12:07 24.06350 44.89994 39863 ft 411 kts 243°
2026-04-29 12:07 24.03813 44.84387 39875 ft 412 kts 243°
2026-04-29 12:08 24.01271 44.78775 39860 ft 412 kts 243°
2026-04-29 12:08 23.98728 44.73167 39856 ft 411 kts 243°
2026-04-29 12:09 23.96609 44.68501 39862 ft 412 kts 243°
2026-04-29 12:09 23.94051 44.62872 39856 ft 413 kts 243°
2026-04-29 12:10 23.91721 44.57133 39858 ft 413 kts 247°
2026-04-29 12:10 23.89626 44.51284 39850 ft 414 kts 248°
2026-04-29 12:11 23.87567 44.45404 39850 ft 414 kts 248°
2026-04-29 12:11 23.85508 44.39523 39851 ft 414 kts 248°
2026-04-29 12:12 23.83441 44.33649 39842 ft 414 kts 248°
2026-04-29 12:12 23.81369 44.27777 39841 ft 414 kts 248°
2026-04-29 12:13 23.79292 44.21905 39847 ft 414 kts 248°
2026-04-29 12:13 23.77223 44.16060 39833 ft 414 kts 248°
2026-04-29 12:14 23.75148 44.10207 39831 ft 413 kts 248°
2026-04-29 12:14 23.73068 44.04347 39833 ft 414 kts 248°
2026-04-29 12:15 23.70977 43.98465 39834 ft 415 kts 248°
2026-04-29 12:15 23.68887 43.92594 39833 ft 415 kts 248°
2026-04-29 12:16 23.66795 43.86723 39833 ft 415 kts 248°
2026-04-29 12:16 23.64699 43.80853 39826 ft 415 kts 248°
2026-04-29 12:17 23.62612 43.75014 39838 ft 416 kts 248°
2026-04-29 12:17 23.60507 43.69131 39834 ft 417 kts 248°
2026-04-29 12:18 23.58395 43.63239 39837 ft 417 kts 248°
2026-04-29 12:18 23.56284 43.57358 39840 ft 416 kts 248°
2026-04-29 12:19 23.54172 43.51482 39829 ft 416 kts 248°
2026-04-29 12:19 23.52064 43.45622 39841 ft 416 kts 248°
2026-04-29 12:20 23.49950 43.39756 39844 ft 416 kts 248°
2026-04-29 12:20 23.47832 43.33889 39843 ft 416 kts 248°
2026-04-29 12:21 23.45713 43.28024 39843 ft 416 kts 248°
2026-04-29 12:21 23.43606 43.22201 39834 ft 416 kts 248°
2026-04-29 12:22 23.41480 43.16332 39848 ft 416 kts 248°
2026-04-29 12:22 23.39350 43.10465 39833 ft 417 kts 248°
2026-04-29 12:23 23.37216 43.04600 39849 ft 417 kts 248°
2026-04-29 12:23 23.35080 42.98734 39840 ft 417 kts 248°
2026-04-29 12:24 23.32944 42.92878 39840 ft 416 kts 248°
2026-04-29 12:24 23.30807 42.87026 39837 ft 416 kts 248°
2026-04-29 12:25 23.28667 42.81175 39835 ft 416 kts 248°
2026-04-29 12:26 23.25459 42.72417 39836 ft 418 kts 248°
2026-04-29 12:26 23.23304 42.66544 39841 ft 419 kts 248°
2026-04-29 12:27 23.21144 42.60663 39846 ft 419 kts 248°
2026-04-29 12:27 23.18984 42.54791 39845 ft 418 kts 248°
2026-04-29 12:28 23.16826 42.48935 39841 ft 417 kts 248°
2026-04-29 12:28 23.14665 42.43076 39852 ft 418 kts 248°
2026-04-29 12:29 23.12494 42.37198 39852 ft 419 kts 248°
2026-04-29 12:29 23.10367 42.31314 39861 ft 418 kts 248°
2026-04-29 12:30 23.08275 42.25430 39869 ft 418 kts 248°
2026-04-29 12:30 23.06181 42.19544 39879 ft 418 kts 248°
2026-04-29 12:31 23.04083 42.13670 39868 ft 416 kts 248°
2026-04-29 12:31 23.01987 42.07818 39874 ft 416 kts 248°
2026-04-29 12:32 22.99894 42.01984 39876 ft 417 kts 248°
2026-04-29 12:32 22.98380 41.97771 39878 ft 417 kts 248°
2026-04-29 12:33 22.96273 41.91908 39882 ft 416 kts 248°
2026-04-29 12:33 22.94171 41.86070 39883 ft 415 kts 248°
2026-04-29 12:34 22.92069 41.80238 39890 ft 415 kts 248°
2026-04-29 12:34 22.90045 41.74627 39889 ft 415 kts 248°
2026-04-29 12:35 22.87935 41.68787 39914 ft 415 kts 248°
2026-04-29 12:35 22.85825 41.62955 39903 ft 415 kts 248°
2026-04-29 12:36 22.83716 41.57135 39917 ft 415 kts 248°
2026-04-29 12:36 22.81605 41.51316 39915 ft 414 kts 248°
2026-04-29 12:37 22.79513 41.45555 39913 ft 413 kts 248°
2026-04-29 12:37 22.77407 41.39766 39903 ft 414 kts 248°
2026-04-29 12:38 22.75318 41.34027 39730 ft 400 kts 248°
2026-04-29 12:38 22.74306 41.31251 39586 ft 392 kts 248°
2026-04-29 12:38 22.73317 41.28538 39442 ft 383 kts 248°
2026-04-29 12:38 22.72347 41.25882 39285 ft 375 kts 248°
2026-04-29 12:39 22.71397 41.23284 39142 ft 367 kts 248°
2026-04-29 12:39 22.70467 41.20742 38991 ft 358 kts 248°
2026-04-29 12:39 22.69558 41.18260 38871 ft 350 kts 248°
2026-04-29 12:39 22.68670 41.15836 38733 ft 342 kts 248°
2026-04-29 12:40 22.67802 41.13466 38595 ft 334 kts 248°
2026-04-29 12:40 22.66954 41.11154 38446 ft 327 kts 248°
2026-04-29 12:40 22.66123 41.08890 37902 ft 330 kts 248°
2026-04-29 12:40 22.65262 41.06546 37147 ft 339 kts 248°
2026-04-29 12:41 22.64379 41.04145 36366 ft 348 kts 248°
2026-04-29 12:41 22.63473 41.01681 35588 ft 357 kts 249°
2026-04-29 12:41 22.62541 40.99146 34836 ft 366 kts 249°
2026-04-29 12:41 22.61597 40.96580 34410 ft 365 kts 249°
2026-04-29 12:42 22.60667 40.94055 34231 ft 357 kts 249°
2026-04-29 12:42 22.59768 40.91617 34089 ft 348 kts 249°
2026-04-29 12:42 22.58882 40.89216 33955 ft 340 kts 249°
2026-04-29 12:42 22.58016 40.86870 33805 ft 331 kts 249°
2026-04-29 12:43 22.57172 40.84583 33638 ft 323 kts 249°
2026-04-29 12:43 22.56348 40.82353 33497 ft 314 kts 249°
2026-04-29 12:43 22.55548 40.80187 33350 ft 306 kts 249°
2026-04-29 12:43 22.54768 40.78075 33203 ft 298 kts 249°
2026-04-29 12:44 22.54008 40.76020 33071 ft 290 kts 249°
2026-04-29 12:44 22.53269 40.74021 32898 ft 283 kts 249°
2026-04-29 12:44 22.52545 40.72065 32687 ft 278 kts 249°
2026-04-29 12:44 22.51833 40.70140 32429 ft 274 kts 249°
2026-04-29 12:45 22.51128 40.68235 32135 ft 271 kts 249°
2026-04-29 12:45 22.50428 40.66343 31828 ft 270 kts 249°
2026-04-29 12:45 22.49740 40.64486 31425 ft 272 kts 249°
2026-04-29 12:45 22.49024 40.62551 30789 ft 283 kts 249°
2026-04-29 12:46 22.48280 40.60541 30135 ft 293 kts 249°
2026-04-29 12:46 22.47508 40.58457 29344 ft 304 kts 249°
2026-04-29 12:46 22.46705 40.56293 28464 ft 316 kts 250°
2026-04-29 12:46 22.45875 40.54054 27532 ft 330 kts 250°
2026-04-29 12:47 22.44999 40.51693 26569 ft 345 kts 250°
2026-04-29 12:47 22.44088 40.49240 25587 ft 359 kts 250°
2026-04-29 12:47 22.43141 40.46688 24589 ft 373 kts 251°
2026-04-29 12:47 22.42158 40.44045 23845 ft 381 kts 251°
2026-04-29 12:48 22.41172 40.41411 23549 ft 373 kts 251°
2026-04-29 12:48 22.40210 40.38847 23324 ft 363 kts 251°
2026-04-29 12:48 22.39275 40.36357 23130 ft 352 kts 251°
2026-04-29 12:48 22.38368 40.33936 22951 ft 342 kts 251°
2026-04-29 12:49 22.37501 40.31623 22773 ft 332 kts 251°
2026-04-29 12:49 22.36630 40.29282 22452 ft 349 kts 251°
2026-04-29 12:49 22.35699 40.26753 22033 ft 373 kts 251°
2026-04-29 12:49 22.34724 40.24123 21611 ft 379 kts 251°
2026-04-29 12:50 22.33738 40.21482 21195 ft 379 kts 251°
2026-04-29 12:50 22.32752 40.18858 20780 ft 376 kts 250°
2026-04-29 12:50 22.31771 40.16251 20376 ft 373 kts 250°
2026-04-29 12:50 22.30799 40.13667 19979 ft 369 kts 250°
2026-04-29 12:51 22.29822 40.11108 19572 ft 366 kts 249°
2026-04-29 12:51 22.28786 40.08602 19171 ft 364 kts 247°
2026-04-29 12:51 22.27668 40.06163 18784 ft 361 kts 245°
2026-04-29 12:51 22.26456 40.03792 18417 ft 359 kts 242°
2026-04-29 12:52 22.25151 40.01507 18031 ft 357 kts 239°
2026-04-29 12:52 22.23752 39.99305 17652 ft 356 kts 237°
2026-04-29 12:52 22.22251 39.97172 17270 ft 355 kts 234°
2026-04-29 12:52 22.20668 39.95132 16877 ft 354 kts 232°
2026-04-29 12:53 22.19037 39.93157 16496 ft 351 kts 231°
2026-04-29 12:53 22.17404 39.91203 16127 ft 349 kts 230°
2026-04-29 12:53 22.15782 39.89261 15765 ft 347 kts 230°
2026-04-29 12:53 22.14191 39.87351 15402 ft 345 kts 230°
2026-04-29 12:54 22.12590 39.85429 15058 ft 343 kts 230°
2026-04-29 12:54 22.11002 39.83520 14695 ft 341 kts 230°
2026-04-29 12:54 22.09425 39.81624 14342 ft 339 kts 229°
2026-04-29 12:54 22.07853 39.79733 13998 ft 337 kts 229°
2026-04-29 12:55 22.06287 39.77852 13651 ft 337 kts 229°
2026-04-29 12:55 22.04722 39.75972 13254 ft 336 kts 229°
2026-04-29 12:55 22.03162 39.74098 12875 ft 336 kts 229°
2026-04-29 12:55 22.01598 39.72221 12508 ft 335 kts 229°
2026-04-29 12:56 22.00066 39.70382 12138 ft 334 kts 229°
2026-04-29 12:56 21.98514 39.68522 11762 ft 333 kts 229°
2026-04-29 12:56 21.96970 39.66670 11389 ft 331 kts 229°
2026-04-29 12:56 21.95434 39.64828 11031 ft 329 kts 229°
2026-04-29 12:57 21.93908 39.62999 10678 ft 327 kts 229°
2026-04-29 12:57 21.92900 39.61792 10442 ft 327 kts 229°
2026-04-29 12:57 21.90867 39.59358 9972 ft 326 kts 229°
2026-04-29 12:57 21.89375 39.57571 9610 ft 321 kts 229°
2026-04-29 12:58 21.87900 39.55805 9220 ft 313 kts 229°
2026-04-29 12:58 21.86461 39.54083 8857 ft 305 kts 229°
2026-04-29 12:58 21.85060 39.52408 8516 ft 297 kts 228°
2026-04-29 12:58 21.83693 39.50773 8209 ft 290 kts 228°
2026-04-29 12:59 21.82784 39.49687 7996 ft 286 kts 227°
2026-04-29 12:59 21.81348 39.48289 7670 ft 280 kts 216°
2026-04-29 12:59 21.79645 39.47310 7407 ft 274 kts 205°
2026-04-29 12:59 21.77906 39.46544 7190 ft 267 kts 204°
2026-04-29 13:00 21.76184 39.45799 6971 ft 266 kts 203°
2026-04-29 13:00 21.74465 39.45050 6756 ft 266 kts 204°
2026-04-29 13:00 21.72748 39.44303 6550 ft 266 kts 203°
2026-04-29 13:00 21.71015 39.43581 6345 ft 266 kts 199°
2026-04-29 13:01 21.69220 39.43086 6129 ft 266 kts 194°
2026-04-29 13:01 21.67434 39.42690 5897 ft 265 kts 193°
2026-04-29 13:01 21.65625 39.42296 5695 ft 265 kts 194°
2026-04-29 13:01 21.63793 39.42026 5479 ft 268 kts 180°
2026-04-29 13:02 21.61974 39.42427 5442 ft 265 kts 166°
2026-04-29 13:02 21.60241 39.43057 5398 ft 261 kts 164°
2026-04-29 13:02 21.58536 39.43708 5383 ft 260 kts 163°
2026-04-29 13:02 21.56824 39.44364 5353 ft 259 kts 163°
2026-04-29 13:03 21.55120 39.44997 5325 ft 261 kts 163°
2026-04-29 13:03 21.53388 39.45626 5302 ft 263 kts 164°
2026-04-29 13:03 21.51669 39.46278 5279 ft 261 kts 163°
2026-04-29 13:03 21.49966 39.46933 5249 ft 259 kts 164°
2026-04-29 13:04 21.48318 39.47575 5220 ft 251 kts 164°
2026-04-29 13:04 21.46618 39.47776 5191 ft 245 kts 192°
2026-04-29 13:04 21.45094 39.47065 5134 ft 239 kts 220°
2026-04-29 13:04 21.44071 39.45680 5087 ft 236 kts 239°
2026-04-29 13:05 21.43461 39.44088 4998 ft 231 kts 259°
2026-04-29 13:05 21.43597 39.42376 4923 ft 236 kts 289°
2026-04-29 13:05 21.44397 39.40824 4847 ft 240 kts 301°
2026-04-29 13:05 21.45371 39.39369 4686 ft 239 kts 303°
2026-04-29 13:06 21.46360 39.37933 4493 ft 238 kts 302°
2026-04-29 13:06 21.46936 39.36303 4359 ft 233 kts 272°
2026-04-29 13:06 21.46678 39.34614 4262 ft 229 kts 250°
2026-04-29 13:06 21.46186 39.33017 4149 ft 221 kts 253°
2026-04-29 13:07 21.45750 39.31447 3996 ft 219 kts 253°
2026-04-29 13:07 21.45311 39.29886 3791 ft 217 kts 254°
2026-04-29 13:07 21.44963 39.28334 3566 ft 212 kts 272°
2026-04-29 13:07 21.45476 39.26924 3325 ft 207 kts 310°
2026-04-29 13:08 21.46518 39.25895 3016 ft 201 kts 319°
2026-04-29 13:08 21.47614 39.24949 2538 ft 203 kts 324°
2026-04-29 13:08 21.48822 39.24383 2484 ft 181 kts 346°
2026-04-29 13:08 21.50012 39.24150 2401 ft 168 kts 349°
2026-04-29 13:09 21.51153 39.23963 2329 ft 163 kts 347°
2026-04-29 13:09 21.52259 39.23702 2322 ft 161 kts 343°
2026-04-29 13:09 21.53049 39.23434 2286 ft 157 kts 340°
2026-04-29 13:10 21.53227 39.23367 2269 ft 157 kts 340°
2026-04-29 13:10 21.54258 39.22969 2163 ft 158 kts 339°
2026-04-29 13:10 21.55299 39.22577 2098 ft 158 kts 339°
2026-04-29 13:11 21.56328 39.22174 1954 ft 157 kts 338°
2026-04-29 13:11 21.57334 39.21748 1712 ft 154 kts 337°
2026-04-29 13:11 21.58313 39.21313 1493 ft 151 kts 336°
2026-04-29 13:11 21.59285 39.20920 1284 ft 147 kts 339°
2026-04-29 13:12 21.60214 39.20592 1124 ft 137 kts 340°
2026-04-29 13:12 21.61102 39.20257 943 ft 131 kts 339°
2026-04-29 13:12 21.61939 39.19916 796 ft 130 kts 339°
2026-04-29 13:12 21.62794 39.19564 645 ft 130 kts 339°
2026-04-29 13:13 21.63632 39.19237 569 ft 130 kts 340°
2026-04-29 13:13 21.64487 39.18907 464 ft 130 kts 339°
2026-04-29 13:13 21.65333 39.18573 343 ft 128 kts 339°
2026-04-29 13:13 21.66157 39.18238 173 ft 124 kts 340°
2026-04-29 13:14 21.66966 39.17926 40 ft 123 kts 340°
2026-04-29 13:14 21.67656 39.17655 38 ft 79 kts 340°
2026-04-29 13:14 21.68021 39.17510 35 ft 47 kts 339°
2026-04-29 13:14 21.68262 39.17390 32 ft 28 kts 319°
2026-04-29 13:15 21.68368 39.17269 29 ft 20 kts 309°
2026-04-29 13:15 21.68454 39.17155 30 ft 19 kts 309°
2026-04-29 13:15 21.68507 39.17047 31 ft 15 kts 259°
2026-04-29 13:15 21.68436 39.17008 33 ft 12 kts 162°
2026-04-29 13:16 21.68349 39.17042 34 ft 14 kts 160°
2026-04-29 13:16 21.68254 39.17080 33 ft 16 kts 159°
2026-04-29 13:16 21.68140 39.17125 34 ft 18 kts 160°
2026-04-29 13:16 21.68019 39.17172 34 ft 20 kts 160°
2026-04-29 13:17 21.67887 39.17223 34 ft 21 kts 160°
2026-04-29 13:17 21.67741 39.17281 34 ft 23 kts 160°
2026-04-29 13:17 21.67585 39.17343 34 ft 24 kts 160°
2026-04-29 13:17 21.67420 39.17409 34 ft 25 kts 160°
2026-04-29 13:18 21.67348 39.17437 34 ft 26 kts 160°
2026-04-29 13:18 21.67214 39.17466 34 ft 14 kts 202°
2026-04-29 13:18 21.67170 39.17407 34 ft 10 kts 239°
2026-04-29 13:18 21.67134 39.17354 34 ft 9 kts 228°
2026-04-29 13:19 21.67121 39.17340 34 ft 8 kts 224°
2026-04-29 13:19 21.67108 39.17328 34 ft 9 kts 220°
2026-04-29 13:19 21.67058 39.17291 34 ft 9 kts 208°
2026-04-29 13:20 21.67009 39.17269 34 ft 7 kts 200°
2026-04-29 13:20 21.66978 39.17259 34 ft 0 kts 194°
2026-04-29 13:22 21.66954 39.17254 34 ft 11 kts 189°
2026-04-29 13:23 21.66851 39.17273 34 ft 16 kts 160°
2026-04-29 13:23 21.66740 39.17317 34 ft 18 kts 160°
2026-04-29 13:23 21.66620 39.17364 34 ft 19 kts 160°
2026-04-29 13:23 21.66513 39.17439 34 ft 18 kts 128°
2026-04-29 13:24 21.66460 39.17551 34 ft 16 kts 105°
2026-04-29 13:24 21.66445 39.17631 34 ft 8 kts 100°
2026-04-29 13:24 21.66418 39.17650 34 ft 3 kts 191°
2026-04-29 13:24 21.66387 39.17642 34 ft 5 kts 192°
2026-04-29 13:25 21.66366 39.17638 34 ft 2 kts 189°
2026-04-29 13:25 21.66356 39.17636 34 ft 0 kts 189°